Regional Weather Roundup
Issued by NWS

Home | Current Version | Previous Version | Text Only | Print | Product List | Glossary Off
Versions: 1 2 3 4 5 6 7 8 9 10 11 12 13 14 15 16 17 18 19 20 21 22 23 24 25 26 27 28 29 30 31 32 33 34 35 36 37 38 39 40 41 42 43 44 45 46 47 48 49 50

000
ASUS43 KDMX 212207
RWRIA

WEATHER ROUNDUP FOR IOWA
NATIONAL WEATHER SERVICE DES MOINES IA
500 PM CDT SUN SEP 21 2014

NOTE: "FAIR" INDICATES FEW OR NO CLOUDS BELOW 12,000 FEET WITH NO
SIGNIFICANT WEATHER AND/OR OBSTRUCTIONS TO VISIBILITY.

* - THESE STATIONS ARE NOT NWS STATIONS...THUS NOT UNDER NWS
QUALITY CONTROL.  THEY ALSO DO NOT REPORT WEATHER SUCH
AS PRECIPITATION OR FOG.

IAZ001>003-012>014-020>022-031>034-043>046-212300-
   NORTHWEST IOWA

CITY           SKY/WX    TMP DP  RH WIND       PRES   REMARKS
CARROLL *      PTSUNNY   68  46  45 N13G20    30.18S
CHEROKEE *     PTSUNNY   68  46  45 NW10      30.20S
DENISON *      MOSUNNY   68  48  49 N13G20    30.18F
LE MARS *      MOSUNNY   70  46  43 N12G20    30.22S
ORANGE CITY *  PTSUNNY   72  45  37 N8        30.22S
SHELDON *      SUNNY     66  46  48 N10G16    30.20S
SIOUX CITY     PTSUNNY   69  48  47 N12       30.22R
SPENCER        MOSUNNY   68  47  46 N16G23    30.21R
STORM LAKE *   SUNNY     66  50  55 N10       30.21R
$$

IAZ055>058-069>071-079>083-090>094-212300-
   SOUTHWEST IOWA

CITY           SKY/WX    TMP DP  RH WIND       PRES   REMARKS
ATLANTIC *     MOSUNNY   70  48  46 N14G21    30.19R
AUDUBON *      MOSUNNY   70  45  40 N13G18    30.20S
CLARINDA *     SUNNY     73  48  40 N15       30.19S
COUNCIL BLFS * MOSUNNY   72  50  46 N15       30.19S
CRESTON *      MOSUNNY   68  50  52 NW17      30.17S
HARLAN  *      MOSUNNY   70  46  43 NW17      30.23S
LAMONI         PTSUNNY   69  49  48 N15G24    30.16R
RED OAK *      MOSUNNY   72  48  43 N15G22    30.19S
SHENANDOAH *   SUNNY     72  48  43 N15G22    30.19S
$$

IAZ047>049-059>061-072>074-084-212300-
   CENTRAL IOWA

CITY           SKY/WX    TMP DP  RH WIND       PRES   REMARKS
AMES           CLOUDY    66  48  52 N16       30.16R
ANKENY *       CLOUDY    68  48  49 N15       30.15S
CHARITON *     PTSUNNY   68  48  49 N15       30.15R
DES MOINES     MOSUNNY   69  47  45 N13       30.15R
GRINNELL*      MOSUNNY   66  48  52 NW13G18   30.15R
KNOXVILLE *    PTSUNNY   66  48  52 N9G18     30.13R
MARSHALLTOWN   PTSUNNY   65  47  52 NW20G26   30.14R
PELLA *        MOSUNNY   64  48  55 NW10      30.15R
PERRY *        CLOUDY    68  46  45 N12G21    30.17S
$$

IAZ004>006-015-016-023>025-035-036-212300-
   NORTH CENTRAL IOWA

CITY           SKY/WX    TMP DP  RH WIND       PRES   REMARKS
ALGONA *       PTSUNNY   64  48  55 N13G21    30.19S
CLARION *        N/A     66  46  48 NW17      30.16F
ESTHERVILLE    MOSUNNY   65  48  54 N17       30.20S
FORT DODGE *   PTSUNNY   64  48  55 N7G16     30.19S
MASON CITY     MOSUNNY   65  48  54 NW20G25   30.17R
FOREST CITY *  CLOUDY    64  50  59 NW12      30.17S
IOWA FALLS *   PTSUNNY   64  46  52 NW14      30.17R
$$

IAZ007>011-017>019-026>030-037>042-050>054-066-212300-
   NORTHEAST IOWA

CITY           SKY/WX    TMP DP  RH WIND       PRES   REMARKS
CEDAR RAPIDS   PTSUNNY   64  50  60 NW20G25   30.10S
CHARLES CITY * PTSUNNY   64  46  52 NW12G24   30.15R
CLINTON *      MOSUNNY   64  50  59 NW14G20   30.09S
DECORAH *      PTSUNNY   64  46  52 N14G22    30.11R
DUBUQUE        PTSUNNY   65  48  54 NW16G24   30.08R
MONTICELLO *   MOSUNNY   66  50  55 NW15      30.08S
OELWEIN *      PTSUNNY   64  48  55 NW15G26   30.13R
WATERLOO       PTSUNNY   64  47  53 N17       30.12R
$$

IAZ064-065-067-068-078-212300-
   EAST CENTRAL IOWA

CITY           SKY/WX    TMP DP  RH WIND       PRES   REMARKS
DAVENPORT      MOSUNNY   65  50  58 NW10      30.08S
IOWA CITY        N/A     65  52  62 NW10      30.12R
MT. PLEASANT * MOSUNNY   64  46  52 N15       30.12R
MUSCATINE *    CLOUDY    64  52  63 NW13      30.11R
QUAD CITIES    PTSUNNY   64  50  60 NW12      30.08R
$$

IAZ062-063-075>077-085>089-095>099-212300-
   SOUTHEAST IOWA

CITY           SKY/WX    TMP DP  RH WIND       PRES   REMARKS
BURLINGTON     PTSUNNY   65  50  58 N14       30.11R
FAIRFIELD *    PTSUNNY   66  50  55 N12       30.13R
FORT MADISON * PTSUNNY   66  52  59 N13G22    30.12R
KEOKUK *       PTSUNNY   66  52  59 N10G20    30.09R
OSKALOOSA *    PTSUNNY   66  50  55 N15G22    30.13R
CENTERVILLE *  MOSUNNY   68  50  52 N10       30.15R
OTTUMWA        CLOUDY    65  48  54 N13G25    30.13R
WASHINGTON *   PTSUNNY   66  50  55 NW18      30.13R
$$

ABBREVIATIONS USED IN REMARKS
   TC - TEMPERATURES IN CELSIUS
  WCI - WIND CHILL INDEX
   HX - HEAT INDEX
  VSB - VISIBILITY
$$



USA.gov is the U.S. government's official web portal to all federal, state and local government web resources and services.